This is the latest recevied weather packets stored in our database for station/object EA7JCM-13. If no packets are shown the sender has not sent any weather packets the latest 10 day(s).
| Time | Temp. | Humidity | Pressure | Rain* | Wind** | Luminosity | Snow |
|---|---|---|---|---|---|---|---|
| 1777997703 | 20.56° C | 35% | 1008.8 hPa | 0 mm | - | - | - |
| 1777997403 | 20° C | 35% | 1009 hPa | 0 mm | - | - | - |
| 1777997102 | 20° C | 34% | 1009 hPa | 0 mm | - | - | - |
| 1777996803 | 20.56° C | 36% | 1009.2 hPa | 0 mm | - | - | - |
| 1777996503 | 19.44° C | 36% | 1009.1 hPa | 0 mm | - | - | - |
| 1777996203 | 18.33° C | 37% | 1008.9 hPa | 0 mm | - | - | - |
| 1777995903 | 18.89° C | 35% | 1009.2 hPa | 0 mm | - | - | - |
| 1777995603 | 20.56° C | 33% | 1009 hPa | 0 mm | - | - | - |
| 1777995303 | 19.44° C | 33% | 1009.2 hPa | 0 mm | - | - | - |
| 1777995004 | 19.44° C | 34% | 1009 hPa | 0 mm | - | - | - |
| 1777994703 | 18.89° C | 35% | 1009 hPa | 0 mm | - | - | - |
| 1777994403 | 19.44° C | 33% | 1009 hPa | 0 mm | - | - | - |
| 1777994103 | 18.89° C | 32% | 1009 hPa | 0 mm | - | - | - |
| 1777993803 | 20.56° C | 35% | 1008.9 hPa | 0 mm | - | - | - |
| 1777993503 | 20.56° C | 33% | 1009.2 hPa | 0 mm | - | - | - |
| 1777993203 | 19.44° C | 35% | 1009.1 hPa | 0 mm | - | - | - |
| 1777992904 | 18.89° C | 34% | 1009.1 hPa | 0 mm | - | - | - |
| 1777992603 | 19.44° C | 35% | 1009.2 hPa | 0 mm | - | - | - |
| 1777992303 | 19.44° C | 36% | 1009.3 hPa | 0 mm | - | - | - |
| 1777992003 | 20° C | 36% | 1009.4 hPa | 0 mm | - | - | - |
| 1777991704 | 20° C | 35% | 1009.4 hPa | 0 mm | - | - | - |
| 1777991403 | 20° C | 37% | 1009.3 hPa | 0 mm | - | - | - |
| 1777991104 | 19.44° C | 37% | 1009.4 hPa | 0 mm | - | - | - |
| 1777990802 | 19.44° C | 39% | 1009.4 hPa | 0 mm | - | - | - |
| 1777990503 | 18.33° C | 41% | 1009.5 hPa | 0 mm | - | - | - |
* Rain latest hour (hover to see other rain measurements)
** Current wind speed in m/s (hover to see current wind gust speed)